| time (UTC) | temp F | wind direction | speed MPH | gust MPH | rain 1hr in | rain 24hr in | rain mn in | humidity % | barometer mb |
| 20260905114514 | 76 | 171 | 0.0 | 0.0 | 0.00 | 0.00 | 0.00 | 89 | 1011.2 |
| 20260905113036 | 75 | 155 | 0.0 | 0.0 | 0.00 | 0.00 | 0.00 | 89 | 1011.2 |
| 20260905111658 | 76 | 155 | 0.0 | 0.0 | 0.00 | 0.00 | 0.00 | 88 | 1011.2 |
| 20260905110006 | 76 | 141 | 0.0 | 0.0 | 0.00 | 0.00 | 0.00 | 88 | 1011.1 |
| 20260905104526 | 77 | 147 | 0.0 | 0.0 | 0.00 | 0.00 | 0.00 | 88 | 1011.0 |
| 20260905103056 | 77 | 143 | 0.0 | 1.0 | 0.00 | 0.00 | 0.00 | 88 | 1010.9 |
| 20260905101507 | 78 | 174 | 0.0 | 0.0 | 0.00 | 0.00 | 0.00 | 88 | 1011.0 |
| 20260905100127 | 78 | 148 | 0.0 | 0.0 | 0.00 | 0.00 | 0.00 | 88 | 1010.9 |
| 20260905094511 | 78 | 158 | 0.0 | 1.0 | 0.00 | 0.00 | 0.00 | 88 | 1010.9 |
| 20260905093026 | 78 | 164 | 0.0 | 1.0 | 0.00 | 0.00 | 0.00 | 87 | 1011.0 |
| 20260905091549 | 78 | 143 | 0.0 | 1.0 | 0.00 | 0.00 | 0.00 | 87 | 1011.0 |
| 20260905090057 | 78 | 141 | 0.0 | 0.0 | 0.00 | 0.00 | 0.00 | 87 | 1010.8 |
| 20260905084509 | 78 | 139 | 0.0 | 1.0 | 0.00 | 0.00 | 0.00 | 87 | 1010.7 |
| 20260905083024 | 78 | 177 | 0.0 | 1.0 | 0.00 | 0.00 | 0.00 | 87 | 1010.9 |
| 20260905081553 | 78 | 143 | 0.0 | 1.0 | 0.00 | 0.00 | 0.00 | 86 | 1011.0 |
| 20260905080021 | 78 | 149 | 0.0 | 1.0 | 0.00 | 0.00 | 0.00 | 86 | 1011.0 |
| 20260905074548 | 78 | 165 | 0.0 | 1.0 | 0.00 | 0.00 | 0.00 | 86 | 1011.2 |
| 20260905073108 | 78 | 139 | 0.0 | 0.0 | 0.00 | 0.00 | 0.00 | 86 | 1011.3 |
| 20260905071508 | 78 | 153 | 0.0 | 0.0 | 0.00 | 0.00 | 0.00 | 85 | 1011.5 |
| 20260905070027 | 79 | 145 | 0.0 | 1.0 | 0.00 | 0.00 | 0.00 | 85 | 1011.6 |
| 20260905064544 | 79 | 143 | 0.0 | 3.0 | 0.00 | 0.00 | 0.00 | 84 | 1011.5 |
| 20260905063001 | 79 | 156 | 0.0 | 2.0 | 0.00 | 0.00 | 0.00 | 84 | 1011.4 |
| 20260905061521 | 79 | 153 | 0.0 | 1.0 | 0.00 | 0.00 | 0.00 | 83 | 1011.5 |
| 20260905060054 | 80 | 155 | 0.0 | 2.0 | 0.00 | 0.00 | 0.00 | 82 | 1011.7 |
| 20260905054502 | 80 | 187 | 1.0 | 3.0 | 0.00 | 0.00 | 0.00 | 82 | 1011.7 |
| 20260905053030 | 80 | 130 | 0.0 | 3.0 | 0.00 | 0.00 | 0.00 | 80 | 1011.6 |
| 20260905051505 | 81 | 139 | 2.0 | 4.0 | 0.00 | 0.00 | 0.00 | 80 | 1011.6 |
| 20260905050020 | 81 | 182 | 3.0 | 9.0 | 0.00 | 0.00 | 0.00 | 79 | 1011.7 |
| 20260905044535 | 82 | 147 | 5.0 | 11.0 | 0.00 | 0.00 | 0.00 | 78 | 1011.8 |
| 20260905043051 | 82 | 151 | 6.0 | 13.0 | 0.00 | 0.00 | 0.00 | 76 | 1011.9 |
| 20260905041506 | 83 | 162 | 5.0 | 7.0 | 0.00 | 0.00 | 0.00 | 74 | 1011.7 |
| 20260905040024 | 83 | 149 | 5.0 | 9.0 | 0.00 | 0.00 | 0.00 | 72 | 1011.6 |
| 20260905034535 | 84 | 174 | 4.0 | 9.0 | 0.00 | 0.00 | 0.00 | 69 | 1011.6 |
| 20260905033006 | 84 | 140 | 4.0 | 8.0 | 0.00 | 0.00 | 0.00 | 66 | 1011.4 |
| 20260905031542 | 83 | 181 | 3.0 | 7.0 | 0.00 | 0.00 | 0.00 | 65 | 1011.2 |
| 20260905030005 | 83 | 197 | 1.0 | 4.0 | 0.00 | 0.00 | 0.00 | 64 | 1011.1 |
| 20260905024536 | 84 | 154 | 0.0 | 4.0 | 0.00 | 0.00 | 0.00 | 64 | 1010.9 |
| 20260905023037 | 84 | 166 | 1.0 | 4.0 | 0.00 | 0.00 | 0.00 | 63 | 1010.8 |
| 20260905021550 | 85 | 168 | 1.0 | 5.0 | 0.00 | 0.00 | 0.00 | 63 | 1010.3 |
| 20260905020005 | 85 | 167 | 1.0 | 6.0 | 0.00 | 0.00 | 0.00 | 63 | 1010.3 |
| 20260905014522 | 85 | 160 | 1.0 | 4.0 | 0.00 | 0.00 | 0.00 | 63 | 1010.2 |
| 20260905013054 | 86 | 159 | 2.0 | 5.0 | 0.00 | 0.00 | 0.00 | 62 | 1010.0 |
| 20260905011607 | 86 | 154 | 2.0 | 6.0 | 0.00 | 0.00 | 0.00 | 61 | 1009.8 |
| 20260905010010 | 87 | 148 | 3.0 | 7.0 | 0.00 | 0.00 | 0.00 | 59 | 1009.6 |
| 20260905004540 | 88 | 158 | 2.0 | 7.0 | 0.00 | 0.00 | 0.00 | 57 | 1009.6 |
| 20260905003013 | 89 | 159 | 3.0 | 11.0 | 0.00 | 0.00 | 0.00 | 53 | 1009.5 |
| 20260905001525 | 90 | 159 | 3.0 | 7.0 | 0.00 | 0.00 | 0.00 | 52 | 1009.2 |
| 20260905000045 | 91 | 171 | 3.0 | 5.0 | 0.00 | 0.00 | 0.00 | 51 | 1009.0 |
| 20260904234552 | 91 | 131 | 2.0 | 6.0 | 0.00 | 0.00 | 0.00 | 51 | 1009.0 |
| 20260904233021 | 91 | 156 | 4.0 | 9.0 | 0.00 | 0.00 | 0.00 | 53 | 1008.8 |
| 20260904231536 | 91 | 163 | 3.0 | 9.0 | 0.00 | 0.00 | 0.00 | 53 | 1009.0 |
| 20260904230108 | 92 | 167 | 3.0 | 9.0 | 0.00 | 0.00 | 0.00 | 53 | 1009.2 |
| 20260904224510 | 92 | 152 | 4.0 | 9.0 | 0.00 | 0.00 | 0.00 | 53 | 1009.1 |
| 20260904223029 | 91 | 157 | 3.0 | 7.0 | 0.00 | 0.00 | 0.00 | 57 | 1009.3 |
| 20260904221615 | 89 | 162 | 3.0 | 6.0 | 0.00 | 0.00 | 0.00 | 59 | 1009.5 |
| 20260904220022 | 89 | 164 | 3.0 | 7.0 | 0.00 | 0.00 | 0.00 | 59 | 1009.8 |
| 20260904214548 | 89 | 151 | 2.0 | 6.0 | 0.00 | 0.00 | 0.00 | 59 | 1009.9 |
| 20260904213100 | 90 | 146 | 2.0 | 6.0 | 0.00 | 0.00 | 0.00 | 56 | 1010.0 |
| 20260904211510 | 90 | 129 | 2.0 | 6.0 | 0.00 | 0.00 | 0.00 | 54 | 1010.1 |
| 20260904210030 | 90 | 139 | 2.0 | 6.0 | 0.00 | 0.00 | 0.00 | 54 | 1010.3 |
| 20260904204546 | 91 | 159 | 2.0 | 6.0 | 0.00 | 0.00 | 0.00 | 53 | 1010.6 |
| 20260904203031 | 91 | 153 | 3.0 | 6.0 | 0.00 | 0.00 | 0.00 | 53 | 1010.6 |
| 20260904201556 | 92 | 146 | 2.0 | 8.0 | 0.00 | 0.00 | 0.00 | 51 | 1010.8 |
| 20260904200026 | 91 | 153 | 3.0 | 8.0 | 0.00 | 0.00 | 0.00 | 53 | 1010.9 |
| 20260904194532 | 91 | 160 | 2.0 | 8.0 | 0.00 | 0.00 | 0.00 | 55 | 1011.1 |
| 20260904193004 | 90 | 140 | 2.0 | 6.0 | 0.00 | 0.00 | 0.00 | 56 | 1011.2 |
| 20260904191520 | 90 | 146 | 3.0 | 7.0 | 0.00 | 0.00 | 0.00 | 57 | 1011.3 |
| 20260904190033 | 90 | 148 | 2.0 | 6.0 | 0.00 | 0.00 | 0.00 | 60 | 1011.6 |
| 20260904184557 | 90 | 155 | 1.0 | 6.0 | 0.00 | 0.00 | 0.00 | 60 | 1011.6 |
| 20260904183008 | 89 | 155 | 3.0 | 6.0 | 0.00 | 0.00 | 0.00 | 61 | 1011.7 |
| 20260904181537 | 90 | 136 | 2.0 | 4.0 | 0.00 | 0.00 | 0.00 | 61 | 1011.8 |
| 20260904180054 | 89 | 143 | 3.0 | 10.0 | 0.00 | 0.00 | 0.00 | 61 | 1011.9 |
| 20260904174508 | 89 | 133 | 2.0 | 6.0 | 0.00 | 0.00 | 0.00 | 62 | 1012.1 |
| 20260904173032 | 89 | 163 | 5.0 | 10.0 | 0.00 | 0.00 | 0.00 | 63 | 1012.4 |
| 20260904171502 | 89 | 146 | 3.0 | 8.0 | 0.00 | 0.00 | 0.00 | 65 | 1012.6 |
| 20260904170005 | 88 | 156 | 3.0 | 9.0 | 0.00 | 0.00 | 0.00 | 67 | 1012.7 |
| 20260904164522 | 86 | 141 | 3.0 | 9.0 | 0.00 | 0.00 | 0.00 | 71 | 1012.8 |
| 20260904163049 | 86 | 150 | 3.0 | 9.0 | 0.00 | 0.00 | 0.00 | 73 | 1012.8 |
| 20260904161601 | 86 | 153 | 2.0 | 6.0 | 0.00 | 0.00 | 0.00 | 73 | 1012.9 |
| 20260904160011 | 85 | 148 | 3.0 | 7.0 | 0.00 | 0.00 | 0.00 | 72 | 1012.8 |
| 20260904154527 | 85 | 168 | 2.0 | 6.0 | 0.00 | 0.00 | 0.00 | 74 | 1012.8 |
| 20260904153102 | 84 | 148 | 3.0 | 5.0 | 0.00 | 0.00 | 0.00 | 76 | 1012.6 |
| 20260904151557 | 83 | 134 | 3.0 | 6.0 | 0.00 | 0.00 | 0.00 | 79 | 1012.5 |
| 20260904150014 | 82 | 166 | 3.0 | 7.0 | 0.00 | 0.00 | 0.00 | 81 | 1012.4 |
| 20260904144539 | 82 | 146 | 2.0 | 8.0 | 0.00 | 0.00 | 0.00 | 82 | 1012.5 |
| 20260904143003 | 81 | 143 | 2.0 | 5.0 | 0.00 | 0.00 | 0.00 | 82 | 1012.5 |
| 20260904141520 | 81 | 154 | 3.0 | 7.0 | 0.00 | 0.00 | 0.00 | 83 | 1012.4 |
| 20260904140042 | 81 | 160 | 4.0 | 8.0 | 0.00 | 0.00 | 0.00 | 84 | 1012.3 |
| 20260904134557 | 80 | 169 | 2.0 | 6.0 | 0.00 | 0.00 | 0.00 | 86 | 1012.4 |
| 20260904133009 | 79 | 131 | 1.0 | 5.0 | 0.00 | 0.00 | 0.00 | 87 | 1012.3 |
| 20260904131528 | 78 | 148 | 2.0 | 5.0 | 0.00 | 0.00 | 0.00 | 88 | 1012.3 |
| 20260904130050 | 77 | 154 | 1.0 | 5.0 | 0.00 | 0.00 | 0.00 | 88 | 1012.1 |
| 20260904124605 | 77 | 167 | 0.0 | 2.0 | 0.00 | 0.00 | 0.00 | 88 | 1012.0 |
| 20260904123043 | 76 | 152 | 0.0 | 2.0 | 0.00 | 0.00 | 0.00 | 89 | 1011.9 |
| 20260904121506 | 76 | 152 | 0.0 | 1.0 | 0.00 | 0.00 | 0.00 | 89 | 1011.8 |
| 20260904120044 | 75 | 141 | 0.0 | 1.0 | 0.00 | 0.00 | 0.00 | 88 | 1011.7 |